When you browse on this site, cookies collect data to enhance your experience and personalize the content and advertising you see.
Visit our Privacy Policy to learn more. By continuing to use the site, you agree to this use of cookies and data.
  • In Hungary
  • List of Countries
  • For 7 days
  • Water Temperature
  • Satellite Maps
  • Weather Map
  • News
  • Weather Widgets
  • user-avatar
    Login

    Hourly Weather Peredmirka

    Today, 11 December, Tuesday

    Time Temperature Precipitation Wind Pressure Humidity
    00:00 -2°C° 0 mm 4 mps 730 mmHg 91%
    01:00 -2°C° 0 mm 4 mps 730 mmHg 91%
    02:00 -3°C° 0 mm 4 mps 730 mmHg 92%
    03:00 -3°C° 0 mm 4 mps 731 mmHg 92%
    04:00 -3°C° 0 mm 4 mps 731 mmHg 93%
    05:00 -3°C° 0 mm 4 mps 731 mmHg 93%
    06:00 -2°C° 0 mm 3 mps 731 mmHg 93%
    07:00 -1°C° 0 mm 3 mps 732 mmHg 93%
    08:00 -1°C° 0 mm 3 mps 732 mmHg 92%
    09:00 -1°C° 0 mm 3 mps 732 mmHg 91%
    10:00 -1°C° 0 mm 3 mps 732 mmHg 90%
    11:00 0°C° 0 mm 3 mps 733 mmHg 89%
    12:00 0°C° 0 mm 3 mps 733 mmHg 87%
    13:00 +1°C° 0 mm 2 mps 733 mmHg 86%
    14:00 +1°C° 0 mm 2 mps 733 mmHg 84%
    15:00 +1°C° 0 mm 2 mps 733 mmHg 85%
    16:00 +1°C° 0 mm 1 mps 733 mmHg 85%
    17:00 +1°C° 0 mm 1 mps 734 mmHg 86%
    18:00 +1°C° 0 mm 1 mps 734 mmHg 86%
    19:00 0°C° 0 mm 1 mps 734 mmHg 85%
    20:00 -1°C° 0 mm 0 mps 734 mmHg 85%
    21:00 -1°C° 0 mm 0 mps 734 mmHg 85%
    22:00 0°C° 0 mm 1 mps 734 mmHg 85%
    23:00 0°C° 0 mm 1 mps 734 mmHg 86%

    Tomorrow, 12 December, Wednesday

    Time Temperature Precipitation Wind Pressure Humidity
    00:00 0°C° 0 mm 1 mps 735 mmHg 86%
    01:00 -1°C° 0 mm 1 mps 735 mmHg 86%
    02:00 -1°C° 0 mm 1 mps 735 mmHg 86%
    03:00 -1°C° 0 mm 1 mps 735 mmHg 87%
    04:00 -1°C° 0 mm 1 mps 735 mmHg 87%
    05:00 -1°C° 0 mm 1 mps 735 mmHg 87%
    06:00 -1°C° 0 mm 1 mps 735 mmHg 87%
    07:00 -1°C° 0 mm 1 mps 735 mmHg 87%
    08:00 -3°C° 0 mm 2 mps 735 mmHg 87%
    09:00 -3°C° 0 mm 2 mps 735 mmHg 84%
    10:00 -2°C° 0 mm 3 mps 735 mmHg 81%
    11:00 -2°C° 0 mm 3 mps 735 mmHg 79%
    12:00 -2°C° 0 mm 4 mps 735 mmHg 78%
    13:00 -2°C° 0 mm 4 mps 735 mmHg 78%
    14:00 -2°C° 0 mm 4 mps 735 mmHg 77%
    15:00 -2°C° 0.1 mm 5 mps 735 mmHg 80%
    16:00 -4°C° 0.1 mm 5 mps 735 mmHg 83%
    17:00 -4°C° 0.1 mm 5 mps 735 mmHg 86%
    18:00 -4°C° 0.3 mm 5 mps 735 mmHg 87%
    19:00 -4°C° 0.3 mm 6 mps 734 mmHg 89%
    20:00 -4°C° 0.3 mm 6 mps 734 mmHg 90%
    21:00 -4°C° 0.4 mm 6 mps 734 mmHg 91%
    22:00 -4°C° 0.4 mm 6 mps 734 mmHg 91%
    23:00 -4°C° 0.4 mm 6 mps 734 mmHg 92%

    Day after tomorrow, 13 December, Thursday

    Time Temperature Precipitation Wind Pressure Humidity
    00:00 -4°C° 0.4 mm 6 mps 734 mmHg 92%
    01:00 -4°C° 0.4 mm 5 mps 734 mmHg 92%
    02:00 -4°C° 0.4 mm 5 mps 734 mmHg 93%
    03:00 -4°C° 0.4 mm 5 mps 734 mmHg 93%
    04:00 -4°C° 0.4 mm 5 mps 733 mmHg 93%
    05:00 -4°C° 0.4 mm 5 mps 733 mmHg 94%
    06:00 -4°C° 0.4 mm 5 mps 733 mmHg 94%
    07:00 -4°C° 0.4 mm 5 mps 733 mmHg 94%
    08:00 -4°C° 0.4 mm 5 mps 733 mmHg 94%
    09:00 -3°C° 0.4 mm 4 mps 733 mmHg 94%
    10:00 -3°C° 0.4 mm 4 mps 734 mmHg 94%
    11:00 -2°C° 0.4 mm 4 mps 734 mmHg 94%
    12:00 -2°C° 0.3 mm 4 mps 734 mmHg 94%
    13:00 -2°C° 0.3 mm 4 mps 734 mmHg 94%
    14:00 -2°C° 0.3 mm 4 mps 734 mmHg 94%
    15:00 -2°C° 0.3 mm 4 mps 734 mmHg 94%
    16:00 -2°C° 0.3 mm 4 mps 734 mmHg 95%
    17:00 -2°C° 0.3 mm 4 mps 734 mmHg 95%
    18:00 -1°C° 0.1 mm 3 mps 735 mmHg 95%
    19:00 -1°C° 0.1 mm 3 mps 735 mmHg 95%
    20:00 -1°C° 0.1 mm 3 mps 735 mmHg 96%
    21:00 -1°C° 0.1 mm 3 mps 735 mmHg 96%
    22:00 -1°C° 0.1 mm 3 mps 735 mmHg 96%
    23:00 -1°C° 0.1 mm 3 mps 736 mmHg 96%

    14 December, Friday

    Time Temperature Precipitation Wind Pressure Humidity
    00:00 -1°C° 0.2 mm 3 mps 736 mmHg 96%
    01:00 -2°C° 0.2 mm 3 mps 736 mmHg 96%
    02:00 -2°C° 0.2 mm 3 mps 736 mmHg 96%
    03:00 -2°C° 0.1 mm 3 mps 736 mmHg 96%
    04:00 -2°C° 0.1 mm 3 mps 736 mmHg 96%
    05:00 -4°C° 0.1 mm 3 mps 737 mmHg 96%
    06:00 -4°C° 0 mm 3 mps 737 mmHg 96%
    07:00 -4°C° 0 mm 2 mps 737 mmHg 96%
    08:00 -4°C° 0 mm 2 mps 737 mmHg 96%
    09:00 -4°C° 0 mm 2 mps 738 mmHg 96%
    10:00 -4°C° 0 mm 3 mps 738 mmHg 95%
    11:00 -4°C° 0 mm 3 mps 739 mmHg 94%
    12:00 -4°C° 0 mm 3 mps 739 mmHg 94%
    13:00 -2°C° 0 mm 3 mps 739 mmHg 93%
    14:00 -2°C° 0 mm 3 mps 739 mmHg 92%
    15:00 -2°C° 0 mm 3 mps 739 mmHg 93%
    16:00 -2°C° 0 mm 3 mps 740 mmHg 93%
    17:00 -4°C° 0 mm 3 mps 740 mmHg 94%
    18:00 -4°C° 0 mm 3 mps 741 mmHg 94%
    19:00 -4°C° 0 mm 3 mps 741 mmHg 95%
    20:00 -3°C° 0 mm 2 mps 741 mmHg 95%
    21:00 -3°C° 0 mm 2 mps 742 mmHg 96%
    22:00 -3°C° 0 mm 2 mps 742 mmHg 96%
    23:00 -3°C° 0 mm 2 mps 742 mmHg 96%

    15 December, Saturday

    Time Temperature Precipitation Wind Pressure Humidity
    00:00 -3°C° 0 mm 2 mps 743 mmHg 97%
    01:00 -4°C° 0 mm 2 mps 743 mmHg 97%
    02:00 -4°C° 0 mm 2 mps 743 mmHg 97%
    03:00 -4°C° 0 mm 2 mps 743 mmHg 97%
    04:00 -3°C° 0 mm 2 mps 743 mmHg 97%
    05:00 -1°C° 0 mm 1 mps 743 mmHg 97%
    06:00 -1°C° 0 mm 1 mps 744 mmHg 97%
    07:00 -1°C° 0 mm 1 mps 744 mmHg 96%
    08:00 -1°C° 0 mm 1 mps 744 mmHg 96%
    09:00 -1°C° 0 mm 1 mps 745 mmHg 95%
    10:00 -1°C° 0 mm 1 mps 745 mmHg 94%
    11:00 0°C° 0 mm 1 mps 745 mmHg 92%
    12:00 0°C° 0 mm 1 mps 745 mmHg 91%
    13:00 0°C° 0 mm 1 mps 745 mmHg 90%
    14:00 0°C° 0 mm 1 mps 745 mmHg 89%
    15:00 0°C° 0 mm 1 mps 745 mmHg 91%
    16:00 -1°C° 0 mm 1 mps 745 mmHg 92%
    17:00 -1°C° 0 mm 1 mps 745 mmHg 93%
    18:00 -1°C° 0 mm 1 mps 746 mmHg 93%
    19:00 -1°C° 0 mm 1 mps 746 mmHg 94%
    20:00 -1°C° 0 mm 1 mps 746 mmHg 94%
    21:00 -1°C° 0.1 mm 1 mps 746 mmHg 94%
    22:00 -1°C° 0.1 mm 1 mps 746 mmHg 94%
    23:00 -2°C° 0.1 mm 1 mps 746 mmHg 94%

    16 December, Sunday

    Time Temperature Precipitation Wind Pressure Humidity
    00:00 -2°C° 0 mm 1 mps 746 mmHg 94%
    01:00 -2°C° 0 mm 1 mps 746 mmHg 93%
    02:00 -3°C° 0 mm 1 mps 746 mmHg 93%
    03:00 -3°C° 0 mm 1 mps 745 mmHg 94%
    04:00 -3°C° 0 mm 1 mps 745 mmHg 94%
    05:00 -3°C° 0 mm 1 mps 745 mmHg 95%
    06:00 -3°C° 0 mm 1 mps 745 mmHg 95%
    07:00 -3°C° 0 mm 1 mps 746 mmHg 95%
    08:00 -3°C° 0 mm 1 mps 746 mmHg 95%
    09:00 -3°C° 0 mm 1 mps 746 mmHg 95%
    10:00 -2°C° 0 mm 1 mps 746 mmHg 94%
    11:00 -2°C° 0 mm 1 mps 746 mmHg 93%
    12:00 -2°C° 0 mm 1 mps 746 mmHg 93%
    13:00 -2°C° 0 mm 1 mps 745 mmHg 92%
    14:00 -2°C° 0 mm 1 mps 745 mmHg 92%
    15:00 -2°C° 0 mm 1 mps 745 mmHg 92%
    16:00 -3°C° 0 mm 1 mps 745 mmHg 93%
    17:00 -3°C° 0 mm 1 mps 745 mmHg 94%
    18:00 -4°C° 0 mm 1 mps 745 mmHg 94%
    19:00 -4°C° 0 mm 1 mps 745 mmHg 94%
    20:00 -6°C° 0 mm 1 mps 745 mmHg 94%
    21:00 -6°C° 0 mm 1 mps 745 mmHg 94%
    22:00 -6°C° 0 mm 1 mps 745 mmHg 94%
    23:00 -6°C° 0 mm 1 mps 745 mmHg 94%
    Show more